Year,Month,Day,Hour,Minute,Value (Times are PST for temperature in C)
2022,04,16,00,00,25.20
2022,04,16,00,01,25.20
2022,04,16,00,02,25.20
2022,04,16,00,03,25.20
2022,04,16,00,04,25.20
2022,04,16,00,05,25.20
2022,04,16,00,06,25.20
2022,04,16,00,07,25.20
2022,04,16,00,08,25.20
2022,04,16,00,09,25.10
2022,04,16,00,10,25.10
2022,04,16,00,11,25.10
2022,04,16,00,12,25.00
2022,04,16,00,13,25.00
2022,04,16,00,14,25.00
2022,04,16,00,15,25.00
2022,04,16,00,16,25.00
2022,04,16,00,17,24.90
2022,04,16,00,18,24.90
2022,04,16,00,19,24.90
2022,04,16,00,20,24.90
2022,04,16,00,21,24.90
2022,04,16,00,22,24.90
2022,04,16,00,23,24.90
2022,04,16,00,24,24.90
2022,04,16,00,25,24.90
2022,04,16,00,26,24.80
2022,04,16,00,27,24.80
2022,04,16,00,28,24.80
2022,04,16,00,29,24.80
2022,04,16,00,30,24.80
2022,04,16,00,31,24.80
2022,04,16,00,32,24.80
2022,04,16,00,33,24.70
2022,04,16,00,34,24.70
2022,04,16,00,35,24.70
2022,04,16,00,36,24.70
2022,04,16,00,37,24.60
2022,04,16,00,38,24.60
2022,04,16,00,39,24.50
2022,04,16,00,40,24.50
2022,04,16,00,41,24.50
2022,04,16,00,42,24.40
2022,04,16,00,43,24.40
2022,04,16,00,44,24.40
2022,04,16,00,45,24.30
2022,04,16,00,46,24.30
2022,04,16,00,47,24.30
2022,04,16,00,48,24.30
2022,04,16,00,49,24.40
2022,04,16,00,50,24.40
2022,04,16,00,51,24.40
2022,04,16,00,52,24.40
2022,04,16,00,53,24.40
2022,04,16,00,54,24.30
2022,04,16,00,55,24.30
2022,04,16,00,56,24.30
2022,04,16,00,57,24.30
2022,04,16,00,58,24.30
2022,04,16,00,59,24.30
2022,04,16,01,00,24.20
2022,04,16,01,01,24.20
2022,04,16,01,02,24.20
2022,04,16,01,03,24.20
2022,04,16,01,04,24.20
2022,04,16,01,05,24.20
2022,04,16,01,06,24.10
2022,04,16,01,07,24.10
2022,04,16,01,08,24.10
2022,04,16,01,09,24.10
2022,04,16,01,10,24.10
2022,04,16,01,11,24.10
2022,04,16,01,12,24.10
2022,04,16,01,13,24.00
2022,04,16,01,14,24.00
2022,04,16,01,15,24.00
2022,04,16,01,16,24.00
2022,04,16,01,17,23.90
2022,04,16,01,18,23.90
2022,04,16,01,19,23.90
2022,04,16,01,20,23.80
2022,04,16,01,21,23.80
2022,04,16,01,22,23.80
2022,04,16,01,23,23.80
2022,04,16,01,24,23.70
2022,04,16,01,25,23.70
2022,04,16,01,26,23.70
2022,04,16,01,27,23.60
2022,04,16,01,28,23.60
2022,04,16,01,29,23.60
2022,04,16,01,30,23.60
2022,04,16,01,31,23.60
2022,04,16,01,32,23.50
2022,04,16,01,33,23.50
2022,04,16,01,34,23.60
2022,04,16,01,35,23.60
2022,04,16,01,36,23.60
2022,04,16,01,37,23.60
2022,04,16,01,38,23.60
2022,04,16,01,39,23.60
2022,04,16,01,40,23.70
2022,04,16,01,41,23.70
2022,04,16,01,42,23.60
2022,04,16,01,43,23.70
2022,04,16,01,44,23.70
2022,04,16,01,45,23.70
2022,04,16,01,46,23.60
2022,04,16,01,47,23.60
2022,04,16,01,48,23.60
2022,04,16,01,49,23.60
2022,04,16,01,50,23.60
2022,04,16,01,51,23.60
2022,04,16,01,52,23.50
2022,04,16,01,53,23.50
2022,04,16,01,54,23.50
2022,04,16,01,55,23.50
2022,04,16,01,56,23.50
2022,04,16,01,57,23.50
2022,04,16,01,58,23.50
2022,04,16,01,59,23.60
2022,04,16,02,00,23.60
2022,04,16,02,01,23.60
2022,04,16,02,02,23.60
2022,04,16,02,03,23.70
2022,04,16,02,04,23.60
2022,04,16,02,05,23.60
2022,04,16,02,06,23.60
2022,04,16,02,07,23.70
2022,04,16,02,08,23.70
2022,04,16,02,09,23.70
2022,04,16,02,10,23.70
2022,04,16,02,11,23.60
2022,04,16,02,12,23.60
2022,04,16,02,13,23.60
2022,04,16,02,14,23.60
2022,04,16,02,15,23.60
2022,04,16,02,16,23.60
2022,04,16,02,17,23.60
2022,04,16,02,18,23.50
2022,04,16,02,19,23.50
2022,04,16,02,20,23.50
2022,04,16,02,21,23.40
2022,04,16,02,22,23.40
2022,04,16,02,23,23.40
2022,04,16,02,24,23.40
2022,04,16,02,25,23.40
2022,04,16,02,26,23.30
2022,04,16,02,27,23.30
2022,04,16,02,28,23.30
2022,04,16,02,29,23.30
2022,04,16,02,30,23.20
2022,04,16,02,31,23.20
2022,04,16,02,32,23.20
2022,04,16,02,33,23.20
2022,04,16,02,34,23.20
2022,04,16,02,35,23.10
2022,04,16,02,36,23.10
2022,04,16,02,37,23.10
2022,04,16,02,38,23.10
2022,04,16,02,39,23.10
2022,04,16,02,40,23.10
2022,04,16,02,41,23.10
2022,04,16,02,42,23.10
2022,04,16,02,43,23.10
2022,04,16,02,44,23.10
2022,04,16,02,45,23.10
2022,04,16,02,46,23.10
2022,04,16,02,47,23.10
2022,04,16,02,48,23.10
2022,04,16,02,49,23.10
2022,04,16,02,50,23.10
2022,04,16,02,51,23.10
2022,04,16,02,52,23.10
2022,04,16,02,53,23.10
2022,04,16,02,54,23.10
2022,04,16,02,55,23.00
2022,04,16,02,56,23.00
2022,04,16,02,57,23.00
2022,04,16,02,58,23.00
2022,04,16,02,59,22.90
2022,04,16,03,00,22.90
2022,04,16,03,01,22.90
2022,04,16,03,02,22.90
2022,04,16,03,03,22.80
2022,04,16,03,04,22.80
2022,04,16,03,05,22.80
2022,04,16,03,06,22.80
2022,04,16,03,07,22.80
2022,04,16,03,08,22.90
2022,04,16,03,09,22.90
2022,04,16,03,10,22.90
2022,04,16,03,11,22.90
2022,04,16,03,12,22.90
2022,04,16,03,13,22.90
2022,04,16,03,14,22.90
2022,04,16,03,15,22.90
2022,04,16,03,16,22.90
2022,04,16,03,17,22.90
2022,04,16,03,18,22.90
2022,04,16,03,19,23.00
2022,04,16,03,20,22.90
2022,04,16,03,21,22.90
2022,04,16,03,22,22.90
2022,04,16,03,23,22.90
2022,04,16,03,24,22.80
2022,04,16,03,25,22.80
2022,04,16,03,26,22.80
2022,04,16,03,27,22.80
2022,04,16,03,28,22.80
2022,04,16,03,29,22.70
2022,04,16,03,30,22.70
2022,04,16,03,31,22.70
2022,04,16,03,32,22.70
2022,04,16,03,33,22.70
2022,04,16,03,34,22.60
2022,04,16,03,35,22.60
2022,04,16,03,36,22.60
2022,04,16,03,37,22.60
2022,04,16,03,38,22.60
2022,04,16,03,39,22.60
2022,04,16,03,40,22.60
2022,04,16,03,41,22.60
2022,04,16,03,42,22.70
2022,04,16,03,43,22.70
2022,04,16,03,44,22.70
2022,04,16,03,45,22.70
2022,04,16,03,46,22.60
2022,04,16,03,47,22.60
2022,04,16,03,48,22.60
2022,04,16,03,49,22.60
2022,04,16,03,50,22.60
2022,04,16,03,51,22.60
2022,04,16,03,52,22.60
2022,04,16,03,53,22.50
2022,04,16,03,54,22.50
2022,04,16,03,55,22.50
2022,04,16,03,56,22.50
2022,04,16,03,57,22.50
2022,04,16,03,58,22.60
2022,04,16,03,59,22.60
2022,04,16,04,00,22.50
2022,04,16,04,01,22.60
2022,04,16,04,02,22.60
2022,04,16,04,03,22.60
2022,04,16,04,04,22.60
2022,04,16,04,05,22.60
2022,04,16,04,06,22.60
2022,04,16,04,07,22.60
2022,04,16,04,08,22.60
2022,04,16,04,09,22.60
2022,04,16,04,10,22.60
2022,04,16,04,11,22.70
2022,04,16,04,12,22.70
2022,04,16,04,13,22.70
2022,04,16,04,14,22.60
2022,04,16,04,15,22.60
2022,04,16,04,16,22.70
2022,04,16,04,17,22.70
2022,04,16,04,18,22.70
2022,04,16,04,19,22.60
2022,04,16,04,20,22.60
2022,04,16,04,21,22.60
2022,04,16,04,22,22.50
2022,04,16,04,23,22.50
2022,04,16,04,24,22.40
2022,04,16,04,25,22.40
2022,04,16,04,26,22.40
2022,04,16,04,27,22.30
2022,04,16,04,28,22.30
2022,04,16,04,29,22.30
2022,04,16,04,30,22.20
2022,04,16,04,31,22.20
2022,04,16,04,32,22.20
2022,04,16,04,33,22.20
2022,04,16,04,34,22.20
2022,04,16,04,35,22.20
2022,04,16,04,36,22.20
2022,04,16,04,37,22.20
2022,04,16,04,38,22.20
2022,04,16,04,39,22.20
2022,04,16,04,40,22.20
2022,04,16,04,41,22.20
2022,04,16,04,42,22.20
2022,04,16,04,43,22.20
2022,04,16,04,44,22.30
2022,04,16,04,45,22.30
2022,04,16,04,46,22.30
2022,04,16,04,47,22.30
2022,04,16,04,48,22.30
2022,04,16,04,49,22.30
2022,04,16,04,50,22.30
2022,04,16,04,51,22.30
2022,04,16,04,52,22.20
2022,04,16,04,53,22.20
2022,04,16,04,54,22.20
2022,04,16,04,55,22.20
2022,04,16,04,56,22.20
2022,04,16,04,57,22.20
2022,04,16,04,58,22.10
2022,04,16,04,59,22.10
2022,04,16,05,00,22.10
2022,04,16,05,01,22.10
2022,04,16,05,02,22.10
2022,04,16,05,03,22.00
2022,04,16,05,04,22.00
2022,04,16,05,05,21.90
2022,04,16,05,06,21.90
2022,04,16,05,07,21.90
2022,04,16,05,08,21.90
2022,04,16,05,09,21.90
2022,04,16,05,10,21.90
2022,04,16,05,11,21.90
2022,04,16,05,12,21.90
2022,04,16,05,13,22.00
2022,04,16,05,14,22.00
2022,04,16,05,15,22.00
2022,04,16,05,16,22.10
2022,04,16,05,17,22.10
2022,04,16,05,18,22.20
2022,04,16,05,19,22.20
2022,04,16,05,20,22.20
2022,04,16,05,21,22.20
2022,04,16,05,22,22.20
2022,04,16,05,23,22.20
2022,04,16,05,24,22.20
2022,04,16,05,25,22.20
2022,04,16,05,26,22.10
2022,04,16,05,27,22.10
2022,04,16,05,28,22.10
2022,04,16,05,29,22.10
2022,04,16,05,30,22.10
2022,04,16,05,31,22.10
2022,04,16,05,32,22.00
2022,04,16,05,33,22.00
2022,04,16,05,34,22.00
2022,04,16,05,35,22.00
2022,04,16,05,36,22.00
2022,04,16,05,37,22.00
2022,04,16,05,38,22.00
2022,04,16,05,39,21.90
2022,04,16,05,40,21.90
2022,04,16,05,41,21.90
2022,04,16,05,42,21.90
2022,04,16,05,43,21.90
2022,04,16,05,44,21.90
2022,04,16,05,45,21.90
2022,04,16,05,46,21.90
2022,04,16,05,47,21.90
2022,04,16,05,48,21.90
2022,04,16,05,49,21.90
2022,04,16,05,50,21.90
2022,04,16,05,51,21.90
2022,04,16,05,52,21.90
2022,04,16,05,53,21.90
2022,04,16,05,54,21.90
2022,04,16,05,55,21.90
2022,04,16,05,56,21.90
2022,04,16,05,57,21.90
2022,04,16,05,58,21.90
2022,04,16,05,59,21.90
2022,04,16,06,00,21.90
2022,04,16,06,01,21.90
2022,04,16,06,02,21.90
2022,04,16,06,03,21.90
2022,04,16,06,04,21.90
2022,04,16,06,05,21.90
2022,04,16,06,06,21.80
2022,04,16,06,07,21.80
2022,04,16,06,08,21.80
2022,04,16,06,09,21.80
2022,04,16,06,10,21.80
2022,04,16,06,11,21.80
2022,04,16,06,12,21.80
2022,04,16,06,13,21.80
2022,04,16,06,14,21.80
2022,04,16,06,15,21.70
2022,04,16,06,16,21.70
2022,04,16,06,17,21.70
2022,04,16,06,18,21.70
2022,04,16,06,19,21.70
2022,04,16,06,20,21.70
2022,04,16,06,21,21.70
2022,04,16,06,22,21.70
2022,04,16,06,23,21.70
2022,04,16,06,24,21.70
2022,04,16,06,25,21.70
2022,04,16,06,26,21.70
2022,04,16,06,27,21.70
2022,04,16,06,28,21.70
2022,04,16,06,29,21.70
2022,04,16,06,30,21.70
2022,04,16,06,31,21.70
2022,04,16,06,32,21.70
2022,04,16,06,33,21.70
2022,04,16,06,34,21.70
2022,04,16,06,35,21.60
2022,04,16,06,36,21.60
2022,04,16,06,37,21.60
2022,04,16,06,38,21.60
2022,04,16,06,39,21.60
2022,04,16,06,40,21.60
2022,04,16,06,41,21.60
2022,04,16,06,42,21.60
2022,04,16,06,43,21.60
2022,04,16,06,44,21.60
2022,04,16,06,45,21.60
2022,04,16,06,46,21.60
2022,04,16,06,47,21.70
2022,04,16,06,48,21.70
2022,04,16,06,49,21.70
2022,04,16,06,50,21.70
2022,04,16,06,51,21.70
2022,04,16,06,52,21.70
2022,04,16,06,53,21.80
2022,04,16,06,54,21.80
2022,04,16,06,55,21.80
2022,04,16,06,56,21.90
2022,04,16,06,57,21.90
2022,04,16,06,58,21.90
2022,04,16,06,59,22.00
2022,04,16,07,00,22.00
2022,04,16,07,01,22.10
2022,04,16,07,02,22.10
2022,04,16,07,03,22.20
2022,04,16,07,04,22.20
2022,04,16,07,05,22.20
2022,04,16,07,06,22.20
2022,04,16,07,07,22.20
2022,04,16,07,08,22.30
2022,04,16,07,09,22.30
2022,04,16,07,10,22.30
2022,04,16,07,11,22.30
2022,04,16,07,12,22.40
2022,04,16,07,13,22.40
2022,04,16,07,14,22.50
2022,04,16,07,15,22.50
2022,04,16,07,16,22.60
2022,04,16,07,17,22.70
2022,04,16,07,18,22.80
2022,04,16,07,19,22.80
2022,04,16,07,20,22.90
2022,04,16,07,21,23.00
2022,04,16,07,22,23.10
2022,04,16,07,23,23.20
2022,04,16,07,24,23.20
2022,04,16,07,25,23.20
2022,04,16,07,26,23.30
2022,04,16,07,27,23.40
2022,04,16,07,28,23.40
2022,04,16,07,29,23.50
2022,04,16,07,30,23.50
2022,04,16,07,31,23.60
2022,04,16,07,32,23.70
2022,04,16,07,33,23.70
2022,04,16,07,34,23.80
2022,04,16,07,35,23.90
2022,04,16,07,36,24.00
2022,04,16,07,37,24.00
2022,04,16,07,38,24.10
2022,04,16,07,39,24.20
2022,04,16,07,40,24.20
2022,04,16,07,41,24.30
2022,04,16,07,42,24.30
2022,04,16,07,43,24.40
2022,04,16,07,44,24.50
2022,04,16,07,45,24.60
2022,04,16,07,46,24.70
2022,04,16,07,47,24.80
2022,04,16,07,48,24.90
2022,04,16,07,49,25.00
2022,04,16,07,50,25.20
2022,04,16,07,51,25.20
2022,04,16,07,52,25.30
2022,04,16,07,53,25.40
2022,04,16,07,54,25.40
2022,04,16,07,55,25.50
2022,04,16,07,56,25.50
2022,04,16,07,57,25.60
2022,04,16,07,58,25.60
2022,04,16,07,59,25.70
2022,04,16,08,00,25.80
2022,04,16,08,01,25.80
2022,04,16,08,02,25.80
2022,04,16,08,03,25.90
2022,04,16,08,04,25.90
2022,04,16,08,05,25.90
2022,04,16,08,06,25.90
2022,04,16,08,07,26.00
2022,04,16,08,08,26.10
2022,04,16,08,09,26.10
2022,04,16,08,10,26.10
2022,04,16,08,11,26.20
2022,04,16,08,12,26.20
2022,04,16,08,13,26.20
2022,04,16,08,14,26.30
2022,04,16,08,15,26.40
2022,04,16,08,16,26.40
2022,04,16,08,17,26.50
2022,04,16,08,18,26.50
2022,04,16,08,19,26.60
2022,04,16,08,20,26.70
2022,04,16,08,21,26.70
2022,04,16,08,22,26.80
2022,04,16,08,23,26.90
2022,04,16,08,24,26.90
2022,04,16,08,25,27.00
2022,04,16,08,26,27.10
2022,04,16,08,27,27.10
2022,04,16,08,28,27.20
2022,04,16,08,29,27.20
2022,04,16,08,30,27.30
2022,04,16,08,31,27.30
2022,04,16,08,32,27.40
2022,04,16,08,33,27.50
2022,04,16,08,34,27.50
2022,04,16,08,35,27.60
2022,04,16,08,36,27.70
2022,04,16,08,37,27.70
2022,04,16,08,38,27.80
2022,04,16,08,39,27.80
2022,04,16,08,40,27.80
2022,04,16,08,41,27.90
2022,04,16,08,42,27.90
2022,04,16,08,43,28.00
2022,04,16,08,44,28.00
2022,04,16,08,45,28.10
2022,04,16,08,46,28.20
2022,04,16,08,47,28.20
2022,04,16,08,48,28.30
2022,04,16,08,49,28.30
2022,04,16,08,50,28.40
2022,04,16,08,51,28.40
2022,04,16,08,52,28.50
2022,04,16,08,53,28.60
2022,04,16,08,54,28.60
2022,04,16,08,55,28.70
2022,04,16,08,56,28.70
2022,04,16,08,57,28.70
2022,04,16,08,58,28.80
2022,04,16,08,59,28.90
2022,04,16,09,00,29.00
2022,04,16,09,01,29.00
2022,04,16,09,02,29.10
2022,04,16,09,03,29.10
2022,04,16,09,04,29.10
2022,04,16,09,05,29.20
2022,04,16,09,06,29.30
2022,04,16,09,07,29.30
2022,04,16,09,08,29.40
2022,04,16,09,09,29.40
2022,04,16,09,10,29.50
2022,04,16,09,11,29.50
2022,04,16,09,12,29.60
2022,04,16,09,13,29.60
2022,04,16,09,14,29.70
2022,04,16,09,15,29.80
2022,04,16,09,16,29.80
2022,04,16,09,17,30.00
2022,04,16,09,18,30.00
2022,04,16,09,19,30.10
2022,04,16,09,20,30.20
2022,04,16,09,21,30.20
2022,04,16,09,22,30.20
2022,04,16,09,23,30.30
2022,04,16,09,24,30.30
2022,04,16,09,25,30.40
2022,04,16,09,26,30.50
2022,04,16,09,27,30.60
2022,04,16,09,28,30.60
2022,04,16,09,29,30.70
2022,04,16,09,30,30.70
2022,04,16,09,31,30.70
2022,04,16,09,32,30.80
2022,04,16,09,33,30.90
2022,04,16,09,34,30.90
2022,04,16,09,35,31.00
2022,04,16,09,36,31.10
2022,04,16,09,37,31.20
2022,04,16,09,38,31.30
2022,04,16,09,39,31.40
2022,04,16,09,40,31.40
2022,04,16,09,41,31.50
2022,04,16,09,42,31.60
2022,04,16,09,43,31.70
2022,04,16,09,44,31.80
2022,04,16,09,45,31.80
2022,04,16,09,46,31.90
2022,04,16,09,47,32.00
2022,04,16,09,48,32.20
2022,04,16,09,49,32.30
2022,04,16,09,50,32.40
2022,04,16,09,51,32.40
2022,04,16,09,52,32.40
2022,04,16,09,53,32.50
2022,04,16,09,54,32.60
2022,04,16,09,55,32.60
2022,04,16,09,56,32.60
2022,04,16,09,57,32.70
2022,04,16,09,58,32.70
2022,04,16,09,59,32.80
2022,04,16,10,00,32.80
2022,04,16,10,01,32.80
2022,04,16,10,02,32.80
2022,04,16,10,03,32.80
2022,04,16,10,04,32.80
2022,04,16,10,05,32.70
2022,04,16,10,06,32.70
2022,04,16,10,07,32.80
2022,04,16,10,08,32.90
2022,04,16,10,09,33.00
2022,04,16,10,10,33.00
2022,04,16,10,11,32.90
2022,04,16,10,12,32.90
2022,04,16,10,13,33.00
2022,04,16,10,14,33.10
2022,04,16,10,15,33.10
2022,04,16,10,16,33.20
2022,04,16,10,17,33.20
2022,04,16,10,18,33.20
2022,04,16,10,19,33.20
2022,04,16,10,20,33.30
2022,04,16,10,21,33.40
2022,04,16,10,22,33.50
2022,04,16,10,23,33.60
2022,04,16,10,24,33.70
2022,04,16,10,25,33.70
2022,04,16,10,26,33.70
2022,04,16,10,27,33.70
2022,04,16,10,28,33.70
2022,04,16,10,29,33.70
2022,04,16,10,30,33.60
2022,04,16,10,31,33.60
2022,04,16,10,32,33.50
2022,04,16,10,33,33.50
2022,04,16,10,34,33.50
2022,04,16,10,35,33.60
2022,04,16,10,36,33.60
2022,04,16,10,37,33.70
2022,04,16,10,38,33.70
2022,04,16,10,39,33.80
2022,04,16,10,40,33.90
2022,04,16,10,41,33.90
2022,04,16,10,42,34.00
2022,04,16,10,43,33.90
2022,04,16,10,44,33.90
2022,04,16,10,45,33.80
2022,04,16,10,46,33.80
2022,04,16,10,47,33.70
2022,04,16,10,48,33.70
2022,04,16,10,49,33.70
2022,04,16,10,50,33.70
2022,04,16,10,51,33.70
2022,04,16,10,52,33.80
2022,04,16,10,53,34.00
2022,04,16,10,54,34.10
2022,04,16,10,55,34.20
2022,04,16,10,56,34.20
2022,04,16,10,57,34.30
2022,04,16,10,58,34.30
2022,04,16,10,59,34.30
2022,04,16,11,00,34.20
2022,04,16,11,01,34.20
2022,04,16,11,02,34.10
2022,04,16,11,03,34.10
2022,04,16,11,04,34.10
2022,04,16,11,05,34.30
2022,04,16,11,06,34.50
2022,04,16,11,07,34.60
2022,04,16,11,08,34.60
2022,04,16,11,09,34.70
2022,04,16,11,10,34.70
2022,04,16,11,11,34.70
2022,04,16,11,12,34.70
2022,04,16,11,13,34.80
2022,04,16,11,14,34.80
2022,04,16,11,15,34.70
2022,04,16,11,16,34.60
2022,04,16,11,17,34.60
2022,04,16,11,18,34.50
2022,04,16,11,19,34.50
2022,04,16,11,20,34.50
2022,04,16,11,21,34.60
2022,04,16,11,22,34.70
2022,04,16,11,23,34.80
2022,04,16,11,24,34.90
2022,04,16,11,25,34.90
2022,04,16,11,26,34.90
2022,04,16,11,27,35.00
2022,04,16,11,28,35.10
2022,04,16,11,29,35.30
2022,04,16,11,30,35.40
2022,04,16,11,31,35.40
2022,04,16,11,32,35.30
2022,04,16,11,33,35.40
2022,04,16,11,34,35.50
2022,04,16,11,35,35.50
2022,04,16,11,36,35.60
2022,04,16,11,37,35.60
2022,04,16,11,38,35.60
2022,04,16,11,39,35.60
2022,04,16,11,40,35.60
2022,04,16,11,41,35.50
2022,04,16,11,42,35.60
2022,04,16,11,43,35.60
2022,04,16,11,44,35.60
2022,04,16,11,45,35.60
2022,04,16,11,46,35.70
2022,04,16,11,47,35.80
2022,04,16,11,48,35.90
2022,04,16,11,49,36.10
2022,04,16,11,50,36.30
2022,04,16,11,51,36.30
2022,04,16,11,52,36.20
2022,04,16,11,53,36.00
2022,04,16,11,54,36.00
2022,04,16,11,55,35.90
2022,04,16,11,56,35.80
2022,04,16,11,57,35.80
2022,04,16,11,58,35.80
2022,04,16,11,59,35.80
2022,04,16,12,00,35.90
2022,04,16,12,01,35.90
2022,04,16,12,02,35.90
2022,04,16,12,03,35.90
2022,04,16,12,04,36.00
2022,04,16,12,05,36.00
2022,04,16,12,06,36.20
2022,04,16,12,07,36.30
2022,04,16,12,08,36.30
2022,04,16,12,09,36.40
2022,04,16,12,10,36.40
2022,04,16,12,11,36.40
2022,04,16,12,12,36.40
2022,04,16,12,13,36.50
2022,04,16,12,14,36.60
2022,04,16,12,15,36.60
2022,04,16,12,16,36.60
2022,04,16,12,17,36.60
2022,04,16,12,18,36.70
2022,04,16,12,19,36.80
2022,04,16,12,20,36.90
2022,04,16,12,21,36.90
2022,04,16,12,22,36.90
2022,04,16,12,23,36.80
2022,04,16,12,24,36.80
2022,04,16,12,25,36.80
2022,04,16,12,26,36.80
2022,04,16,12,27,36.80
2022,04,16,12,28,36.80
2022,04,16,12,29,36.80
2022,04,16,12,30,36.80
2022,04,16,12,31,36.80
2022,04,16,12,32,36.80
2022,04,16,12,33,36.70
2022,04,16,12,34,36.70
2022,04,16,12,35,36.70
2022,04,16,12,36,36.80
2022,04,16,12,37,36.80
2022,04,16,12,38,36.90
2022,04,16,12,39,36.90
2022,04,16,12,40,36.90
2022,04,16,12,41,36.90
2022,04,16,12,42,36.90
2022,04,16,12,43,36.90
2022,04,16,12,44,37.00
2022,04,16,12,45,37.10
2022,04,16,12,46,37.10
2022,04,16,12,47,37.20
2022,04,16,12,48,37.20
2022,04,16,12,49,37.20
2022,04,16,12,50,37.00
2022,04,16,12,51,36.90
2022,04,16,12,52,36.90
2022,04,16,12,53,36.90
2022,04,16,12,54,36.90
2022,04,16,12,55,36.90
2022,04,16,12,56,37.00
2022,04,16,12,57,37.10
2022,04,16,12,58,37.20
2022,04,16,12,59,37.20
2022,04,16,13,00,37.30
2022,04,16,13,01,37.30
2022,04,16,13,02,37.30
2022,04,16,13,03,37.30
2022,04,16,13,04,37.30
2022,04,16,13,05,37.30
2022,04,16,13,06,37.40
2022,04,16,13,07,37.50
2022,04,16,13,08,37.60
2022,04,16,13,09,37.70
2022,04,16,13,10,37.80
2022,04,16,13,11,38.00
2022,04,16,13,12,38.10
2022,04,16,13,13,38.20
2022,04,16,13,14,38.30
2022,04,16,13,15,38.30
2022,04,16,13,16,38.30
2022,04,16,13,17,38.30
2022,04,16,13,18,38.30
2022,04,16,13,19,38.20
2022,04,16,13,20,38.20
2022,04,16,13,21,38.20
2022,04,16,13,22,38.30
2022,04,16,13,23,38.50
2022,04,16,13,24,38.50
2022,04,16,13,25,38.50
2022,04,16,13,26,38.50
2022,04,16,13,27,38.40
2022,04,16,13,28,38.40
2022,04,16,13,29,38.30
2022,04,16,13,30,38.30
2022,04,16,13,31,38.30
2022,04,16,13,32,38.40
2022,04,16,13,33,38.50
2022,04,16,13,34,38.50
2022,04,16,13,35,38.60
2022,04,16,13,36,38.60
2022,04,16,13,37,38.60
2022,04,16,13,38,38.60
2022,04,16,13,39,38.70
2022,04,16,13,40,38.60
2022,04,16,13,41,38.60
2022,04,16,13,42,38.60
2022,04,16,13,43,38.50
2022,04,16,13,44,38.40
2022,04,16,13,45,38.40
2022,04,16,13,46,38.50
2022,04,16,13,47,38.50
2022,04,16,13,48,38.60
2022,04,16,13,49,38.60
2022,04,16,13,50,38.50
2022,04,16,13,51,38.50
2022,04,16,13,52,38.50
2022,04,16,13,53,38.50
2022,04,16,13,54,38.60
2022,04,16,13,55,38.60
2022,04,16,13,56,38.50
2022,04,16,13,57,38.60
2022,04,16,13,58,38.80
2022,04,16,13,59,38.90
2022,04,16,14,00,39.00
2022,04,16,14,01,39.20
2022,04,16,14,02,39.20
2022,04,16,14,03,39.10
2022,04,16,14,04,39.00
2022,04,16,14,05,38.90
2022,04,16,14,06,38.80
2022,04,16,14,07,38.80
2022,04,16,14,08,38.90
2022,04,16,14,09,38.90
2022,04,16,14,10,38.90
2022,04,16,14,11,38.90
2022,04,16,14,12,38.90
2022,04,16,14,13,38.80
2022,04,16,14,14,38.80
2022,04,16,14,15,38.90
2022,04,16,14,16,38.90
2022,04,16,14,17,38.90
2022,04,16,14,18,39.00
2022,04,16,14,19,39.10
2022,04,16,14,20,39.20
2022,04,16,14,21,39.40
2022,04,16,14,22,39.40
2022,04,16,14,23,39.40
2022,04,16,14,24,39.30
2022,04,16,14,25,39.20
2022,04,16,14,26,39.10
2022,04,16,14,27,39.10
2022,04,16,14,28,39.20
2022,04,16,14,29,39.20
2022,04,16,14,30,39.30
2022,04,16,14,31,39.40
2022,04,16,14,32,39.50
2022,04,16,14,33,39.60
2022,04,16,14,34,39.70
2022,04,16,14,35,39.70
2022,04,16,14,36,39.80
2022,04,16,14,37,39.90
2022,04,16,14,38,39.80
2022,04,16,14,39,39.80
2022,04,16,14,40,39.80
2022,04,16,14,41,39.80
2022,04,16,14,42,39.80
2022,04,16,14,43,39.80
2022,04,16,14,44,39.80
2022,04,16,14,45,39.80
2022,04,16,14,46,39.80
2022,04,16,14,47,39.70
2022,04,16,14,48,39.70
2022,04,16,14,49,39.70
2022,04,16,14,50,39.70
2022,04,16,14,51,39.80
2022,04,16,14,52,39.70
2022,04,16,14,53,39.80
2022,04,16,14,54,39.80
2022,04,16,14,55,39.80
2022,04,16,14,56,39.80
2022,04,16,14,57,39.80
2022,04,16,14,58,39.80
2022,04,16,14,59,39.80
2022,04,16,15,00,39.80
2022,04,16,15,01,39.80
2022,04,16,15,02,39.80
2022,04,16,15,03,39.80
2022,04,16,15,04,39.80
2022,04,16,15,05,39.70
2022,04,16,15,06,39.80
2022,04,16,15,07,39.90
2022,04,16,15,08,40.00
2022,04,16,15,09,40.10
2022,04,16,15,10,40.10
2022,04,16,15,11,40.20
2022,04,16,15,12,40.10
2022,04,16,15,13,40.20
2022,04,16,15,14,40.10
2022,04,16,15,15,40.10
2022,04,16,15,16,40.10
2022,04,16,15,17,40.10
2022,04,16,15,18,40.10
2022,04,16,15,19,40.20
2022,04,16,15,20,40.20
2022,04,16,15,21,40.30
2022,04,16,15,22,40.40
2022,04,16,15,23,40.60
2022,04,16,15,24,40.60
2022,04,16,15,25,40.60
2022,04,16,15,26,40.60
2022,04,16,15,27,40.60
2022,04,16,15,28,40.60
2022,04,16,15,29,40.70
2022,04,16,15,30,40.70
2022,04,16,15,31,40.70
2022,04,16,15,32,40.60
2022,04,16,15,33,40.60
2022,04,16,15,34,40.60
2022,04,16,15,35,40.70
2022,04,16,15,36,40.80
2022,04,16,15,37,40.70
2022,04,16,15,38,40.60
2022,04,16,15,39,40.50
2022,04,16,15,40,40.50
2022,04,16,15,41,40.50
2022,04,16,15,42,40.50
2022,04,16,15,43,40.40
2022,04,16,15,44,40.30
2022,04,16,15,45,40.30
2022,04,16,15,46,40.20
2022,04,16,15,47,40.30
2022,04,16,15,48,40.20
2022,04,16,15,49,40.30
2022,04,16,15,50,40.30
2022,04,16,15,51,40.40
2022,04,16,15,52,40.40
2022,04,16,15,53,40.50
2022,04,16,15,54,40.40
2022,04,16,15,55,40.40
2022,04,16,15,56,40.40
2022,04,16,15,57,40.30
2022,04,16,15,58,40.30
2022,04,16,15,59,40.30
2022,04,16,16,00,40.40
2022,04,16,16,01,40.40
2022,04,16,16,02,40.50
2022,04,16,16,03,40.50
2022,04,16,16,04,40.40
2022,04,16,16,05,40.40
2022,04,16,16,06,40.40
2022,04,16,16,07,40.40
2022,04,16,16,08,40.40
2022,04,16,16,09,40.50
2022,04,16,16,10,40.50
2022,04,16,16,11,40.60
2022,04,16,16,12,40.70
2022,04,16,16,13,40.80
2022,04,16,16,14,40.70
2022,04,16,16,15,40.70
2022,04,16,16,16,40.60
2022,04,16,16,17,40.50
2022,04,16,16,18,40.40
2022,04,16,16,19,40.30
2022,04,16,16,20,40.30
2022,04,16,16,21,40.30
2022,04,16,16,22,40.30
2022,04,16,16,23,40.30
2022,04,16,16,24,40.30
2022,04,16,16,25,40.30
2022,04,16,16,26,40.30
2022,04,16,16,27,40.20
2022,04,16,16,28,40.10
2022,04,16,16,29,40.10
2022,04,16,16,30,40.00
2022,04,16,16,31,40.00
2022,04,16,16,32,40.00
2022,04,16,16,33,40.00
2022,04,16,16,34,39.90
2022,04,16,16,35,39.80
2022,04,16,16,36,39.80
2022,04,16,16,37,39.70
2022,04,16,16,38,39.70
2022,04,16,16,39,39.70
2022,04,16,16,40,39.70
2022,04,16,16,41,39.70
2022,04,16,16,42,39.70
2022,04,16,16,43,39.80
2022,04,16,16,44,39.90
2022,04,16,16,45,40.00
2022,04,16,16,46,40.20
2022,04,16,16,47,40.30
2022,04,16,16,48,40.50
2022,04,16,16,49,40.60
2022,04,16,16,50,40.70
2022,04,16,16,51,40.70
2022,04,16,16,52,40.70
2022,04,16,16,53,40.70
2022,04,16,16,54,40.70
2022,04,16,16,55,40.70
2022,04,16,16,56,40.70
2022,04,16,16,57,40.80
2022,04,16,16,58,40.90
2022,04,16,16,59,41.00
2022,04,16,17,00,41.00
2022,04,16,17,01,41.10
2022,04,16,17,02,41.10
2022,04,16,17,03,41.20
2022,04,16,17,04,41.30
2022,04,16,17,05,41.30
2022,04,16,17,06,41.30
2022,04,16,17,07,41.30
2022,04,16,17,08,41.30
2022,04,16,17,09,41.20
2022,04,16,17,10,41.30
2022,04,16,17,11,41.30
2022,04,16,17,12,41.30
2022,04,16,17,13,41.30
2022,04,16,17,14,41.20
2022,04,16,17,15,41.10
2022,04,16,17,16,41.00
2022,04,16,17,17,40.90
2022,04,16,17,18,40.80
2022,04,16,17,19,40.80